Wind_Speed
10 8 8 9 9 9 9 9 9 9 10 11 13 15 17 17 12 7 3 9 13 15 11 8 7 8 7 11 4 10 12 14 20 23 15 16 17 14 9 5 8 7 3 17 28
10 9 7 7 8 9 9 9 9 10 10 11 13 15 18 18 9 3 4 11 11 12 9 8 8 8 9 10 5 8 12 18 15 16 14 14 13 17 9 12 10 8 9 27 29
12 9 9 6 7 9 9 10 10 11 12 12 13 15 16 13 8 6 10 11 11 8 8 9 8 8 13 10 9 8 12 14 8 11 10 12 10 13 11 17 14 15 18 19 23
14 12 10 8 7 8 10 11 12 13 14 14 13 13 14 10 7 8 13 10 8 6 6 7 5 7 7 11 10 8 16 12 7 6 11 11 9 11 14 5 5 12 20 18 17
16 14 11 10 8 9 10 12 13 15 15 16 13 11 8 9 6 8 11 8 5 4 4 6 9 7 8 4 8 14 3 14 12 4 12 12 12 13 15 9 1 5 17 18 17
18 16 13 12 11 11 12 13 14 16 18 16 10 7 7 11 4 11 7 5 5 5 2 4 5 6 7 5 7 3 10 7 12 15 11 12 15 13 12 11 4 11 15 16 17
19 17 13 11 12 13 13 15 15 16 18 11 6 3 6 6 6 8 5 4 5 4 3 0 4 5 2 6 6 5 5 6 13 18 13 8 16 19 15 17 10 10 13 16 17
22 18 12 11 11 13 14 15 16 16 12 7 3 3 5 3 4 8 5 4 4 4 5 2 2 4 4 6 4 8 5 2 8 17 16 9 16 17 17 15 12 10 13 15 17
25 20 12 11 10 13 14 15 14 10 5 3 2 4 2 3 2 3 4 6 3 2 5 4 5 6 3 4 1 5 4 10 7 17 14 13 11 11 14 15 15 14 15 12 14
27 20 13 13 11 13 13 11 5 1 1 3 5 5 3 4 2 1 2 5 4 2 4 6 6 6 6 6 3 4 10 7 10 10 19 15 17 6 6 13 16 15 14 12 13
31 19 16 15 14 11 10 3 4 5 4 5 7 5 3 2 2 5 3 5 7 6 3 4 6 6 2 2 5 2 7 9 4 5 10 20 15 16 5 6 11 10 15 11 12
31 19 17 16 12 9 6 3 3 2 6 4 4 5 3 3 4 6 2 4 4 8 4 2 6 5 5 6 7 5 5 8 10 8 8 13 21 16 13 7 10 14 15 12 11
30 21 16 16 6 6 7 4 3 3 4 2 1 5 2 4 4 2 4 5 8 8 7 5 4 7 6 7 9 10 11 11 3 6 10 11 16 19 18 7 6 10 13 14 17
29 23 16 13 2 4 3 7 5 4 3 2 3 2 3 3 3 1 4 3 4 6 5 3 1 4 8 9 8 8 2 8 6 5 7 14 6 17 20 11 9 13 14 14 10
27 22 14 9 4 3 5 5 4 4 3 2 2 2 1 5 6 4 2 4 9 10 5 1 5 5 4 8 5 1 8 9 10 8 5 10 6 11 19 12 10 16 16 15 14
26 21 10 5 2 2 4 5 2 2 4 0 1 2 4 6 3 0 4 4 4 7 8 9 1 3 3 2 6 10 8 5 7 5 3 10 11 8 14 14 13 16 16 18 15
29 17 4 3 1 4 4 2 2 3 1 2 2 3 6 4 3 3 4 6 3 5 5 4 7 1 2 5 5 5 7 2 4 3 3 2 7 8 9 8 13 15 17 16 17
31 10 5 3 3 1 2 2 2 2 3 1 3 8 5 2 4 4 4 7 5 4 8 4 3 6 8 4 4 7 5 4 4 2 4 3 7 5 5 3 2 3 12 12 14
27 7 4 4 2 2 4 1 3 2 3 5 4 4 3 3 4 4 4 4 1 2 3 5 1 2 3 3 3 4 6 2 5 3 4 6 5 5 6 6 6 8 8 12 12
17 9 4 4 1 4 3 5 3 2 1 1 4 1 4 2 4 2 2 3 2 1 2 3 5 2 2 2 7 6 2 3 3 4 4 6 5 3 7 9 7 10 12 12 12
7 5 1 2 1 4 4 5 4 5 6 4 4 4 6 4 4 4 4 2 2 2 3 3 2 2 2 7 5 4 4 6 3 3 5 6 2 3 9 6 7 8 11 13 14
6 4 2 4 3 3 4 4 1 5 4 5 3 6 4 2 4 4 4 2 1 1 2 1 4 6 8 5 1 4 6 5 7 3 4 4 2 1 4 5 7 9 10 12 13
5 5 1 3 5 7 4 4 4 7 7 8 7 8 2 4 4 7 4 3 3 2 3 2 3 5 4 4 3 6 6 7 5 4 9 8 0 3 5 7 10 12 12 12 12
4 4 3 4 5 7 8 10 6 5 5 5 3 5 6 6 10 4 4 3 5 4 1 1 4 7 7 6 3 5 5 7 8 4 7 9 8 8 7 11 12 14 14 14 14
3 4 3 3 5 11 7 6 8 6 7 9 4 13 9 6 5 7 7 4 6 6 4 3 5 2 11 14 9 12 12 9 12 13 6 5 6 6 9 12 12 12 14 14 13
3 4 5 11 11 11 10 10 14 9 7 7 11 7 14 10 10 5 6 6 5 7 4 4 3 3 6 0 6 12 14 14 14 15 15 15 14 3 9 11 11 12 12 13 14
10 6 3 5 11 15 15 15 13 9 10 16 12 10 11 18 14 5 5 1 2 7 9 4 3 2 5 3 10 10 5 11 8 8 12 10 4 11 11 12 14 14 15 15 15
Wind_Direction
338 345 351 355 1 359 3 3 1 -0 359 354 349 347 345 337 333 285 333 330 323 324 320 300 272 245 251 242 235 243 240 239 234 238 245 209 207 221 276 160 166 177 38 133 149
336 334 335 343 349 348 350 348 343 337 336 334 335 338 338 338 327 340 320 333 328 323 313 292 275 223 230 228 205 222 226 238 241 242 231 217 226 214 220 218 176 151 115 132 148
340 326 323 320 331 333 338 339 335 328 319 317 320 327 335 336 285 2 328 334 332 328 297 287 281 270 245 228 210 217 242 233 259 287 315 296 223 244 228 213 201 181 145 148 154
348 329 313 299 302 313 320 326 328 326 318 312 315 321 330 314 356 0 334 335 336 315 298 287 261 236 245 221 205 235 230 264 227 243 277 254 286 243 237 274 324 176 156 157 160
351 335 311 295 284 292 302 314 317 324 325 317 302 320 330 304 19 345 343 338 337 314 314 298 274 255 252 248 226 234 252 244 235 236 268 268 262 253 246 243 304 128 157 168 164
352 342 325 301 284 284 293 302 308 316 320 319 294 313 295 315 345 341 334 330 336 320 334 334 343 324 289 254 244 274 194 247 259 222 248 264 252 242 245 255 211 182 165 171 168
353 342 336 315 295 290 293 298 304 311 317 311 287 290 273 329 347 345 336 323 337 330 303 127 351 252 342 262 226 236 204 234 255 233 227 245 252 242 249 229 220 191 172 173 176
352 344 333 330 311 301 298 300 300 305 307 302 270 249 292 294 338 333 327 310 350 315 308 240 219 259 253 290 235 204 211 227 253 222 216 227 247 220 227 230 228 196 182 179 175
353 347 338 333 323 313 306 301 298 292 287 269 199 262 290 330 321 17 329 324 337 286 281 237 252 255 145 221 302 221 235 205 246 203 208 214 239 244 206 216 232 193 197 183 180
355 350 345 337 328 325 321 312 301 103 132 213 257 246 160 341 320 219 243 311 305 285 240 230 239 255 221 216 264 195 231 220 228 193 212 220 241 175 190 234 224 199 200 177 185
359 358 352 340 331 332 337 310 222 190 206 275 320 291 324 303 220 211 232 273 249 249 287 269 283 261 285 322 335 229 258 264 258 192 223 223 229 241 212 219 239 224 197 178 191
0 358 352 346 337 347 356 352 35 349 298 222 274 274 270 276 286 212 204 260 252 309 317 275 266 288 303 269 247 252 275 260 257 250 220 234 227 238 231 256 223 218 176 176 151
360 354 349 349 1 20 21 25 340 330 262 190 221 278 294 214 290 312 201 312 286 292 327 299 312 275 251 255 237 239 252 272 285 200 232 254 227 225 242 234 221 186 172 169 162
358 355 349 354 42 352 41 339 337 319 275 175 180 147 190 260 244 121 208 296 257 299 326 294 85 267 276 265 230 287 331 271 268 253 238 206 230 220 227 209 210 184 170 158 144
355 353 348 7 326 356 325 332 329 274 330 154 159 114 215 245 331 153 175 214 277 307 271 53 224 226 240 270 253 305 333 282 257 261 300 203 247 234 207 202 214 187 185 172 162
350 346 344 350 3 331 331 326 301 272 263 325 271 269 267 197 212 247 226 217 279 291 248 282 345 253 304 240 240 313 291 241 242 254 242 225 212 276 188 215 205 192 186 170 153
346 342 341 320 276 316 334 248 309 251 99 285 299 300 305 257 262 235 261 245 283 307 270 191 226 179 266 267 208 245 48 256 227 195 301 140 199 252 164 207 220 187 185 175 179
342 338 315 261 289 305 245 221 264 337 275 71 285 289 262 329 202 267 269 269 193 254 292 292 248 200 159 230 328 233 233 288 314 327 175 170 222 238 119 123 22 136 175 172 173
344 320 271 262 267 277 258 284 278 348 1 311 282 270 224 228 284 289 236 292 353 322 298 320 204 147 230 265 239 140 238 343 298 229 265 183 217 155 166 165 174 177 172 171 176
333 308 243 262 214 262 267 240 231 153 183 277 279 246 299 334 280 265 275 109 166 211 309 7 292 172 98 292 235 253 355 267 228 291 299 190 235 212 202 181 170 175 179 164 147
312 302 152 185 185 240 237 243 232 185 179 196 291 284 259 301 273 289 297 143 180 168 234 296 240 138 202 211 294 202 239 231 296 260 300 311 150 99 179 168 183 173 162 154 154
303 263 147 160 261 227 238 214 148 194 181 200 233 259 256 266 268 263 265 282 132 236 246 122 301 274 244 113 234 267 281 300 271 273 253 296 284 81 141 156 151 148 146 149 146
294 278 190 181 247 226 214 246 235 195 208 182 212 216 201 247 259 235 261 108 178 258 318 127 223 292 189 190 186 249 223 253 276 286 272 279 320 157 149 164 150 149 146 142 138
292 285 187 213 269 280 261 252 232 207 230 220 229 189 192 230 227 260 242 180 179 218 70 297 269 254 272 327 316 251 234 226 235 254 278 250 293 162 179 169 162 155 155 150 149
234 270 13 252 244 253 266 286 224 209 223 208 218 225 200 228 212 234 222 211 196 162 189 240 273 284 273 274 264 267 268 235 220 238 264 334 321 345 180 177 165 159 152 148 146
285 313 299 280 286 274 251 253 262 255 190 222 233 224 221 231 226 222 212 208 202 174 210 185 269 301 286 6 254 261 259 250 244 247 261 276 286 239 148 152 156 158 155 154 152
1 344 299 276 272 270 257 254 266 280 239 248 234 251 226 238 255 283 271 8 246 179 194 205 247 272 271 339 307 273 292 228 229 241 233 250 303 151 163 168 171 166 166 158 154
Height
838 836 834 833 831 829 827 826 824 823 821 819 816 814 812 809 807 806 803 807 804 801 798 797 795 793 793 791 793 785 784 779 769 761 749 734 743 742 740 744 746 750 747 754 773
837 835 833 832 831 830 828 827 825 823 821 819 816 814 812 809 807 804 807 805 802 800 798 796 791 791 791 789 792 790 783 773 756 750 755 744 744 745 753 745 749 755 757 766 773
836 834 832 831 830 829 828 826 824 823 821 818 816 814 811 809 806 803 804 803 801 799 798 797 794 792 791 789 789 784 784 767 761 762 758 757 751 744 748 748 742 752 759 768 773
835 833 831 830 829 828 827 826 824 822 820 817 815 813 811 809 810 804 803 801 799 799 798 796 792 792 790 788 783 787 779 775 767 767 771 767 755 752 753 745 740 736 756 767 773
835 831 829 827 827 826 825 824 823 821 818 816 814 813 811 806 803 805 803 801 800 799 797 794 791 787 788 785 785 784 785 775 771 772 771 765 768 761 751 749 746 744 758 767 771
834 830 827 825 824 823 823 822 821 819 817 815 813 813 811 806 807 805 803 802 801 798 796 794 793 792 790 788 787 783 784 784 778 773 772 771 765 759 754 746 749 749 761 766 770
833 828 826 824 822 821 820 819 818 817 815 813 812 812 810 806 806 805 803 802 801 799 795 796 796 794 792 787 782 785 787 784 778 771 772 769 771 760 753 743 749 753 762 765 769
832 827 824 822 821 819 817 816 815 814 813 811 812 813 805 805 805 805 804 803 801 800 799 797 797 796 793 788 783 784 787 789 770 769 768 772 767 753 748 745 749 756 762 764 768
831 826 823 821 819 817 815 812 811 810 810 810 812 811 802 804 804 804 805 802 800 800 800 799 798 791 793 789 792 785 785 787 782 761 766 770 764 742 741 743 748 753 757 762 767
830 825 822 820 817 815 813 810 808 809 810 810 810 812 807 803 804 803 803 803 801 798 798 797 793 786 780 788 784 786 777 772 772 763 764 765 763 745 748 749 746 745 755 762 767
830 825 823 820 817 814 812 811 811 810 808 803 804 802 801 804 802 801 801 801 799 797 798 792 793 792 781 781 777 773 777 772 763 758 765 766 761 754 746 752 750 742 752 763 768
830 826 823 820 817 815 814 811 814 817 807 802 803 804 802 803 800 798 801 799 794 791 790 797 796 781 781 779 780 779 779 772 763 761 765 759 761 752 745 748 745 743 751 762 763
831 827 823 820 817 817 818 819 817 816 808 800 800 801 801 803 797 794 800 795 792 788 784 794 792 785 785 778 780 776 775 772 771 762 760 759 759 756 744 746 745 739 751 759 760
832 827 823 820 821 819 819 820 819 819 808 799 798 799 800 799 797 796 797 799 791 788 784 783 785 787 785 780 776 786 767 770 768 766 765 753 768 752 746 746 747 747 754 758 765
831 827 824 820 821 820 823 819 819 820 821 801 797 798 796 799 794 794 797 796 793 786 787 776 780 782 790 781 774 781 773 771 765 764 761 757 765 737 738 744 746 744 750 757 765
830 826 823 822 821 820 819 819 820 821 822 810 796 796 794 791 789 790 794 795 790 790 782 778 779 780 775 775 777 775 770 767 764 767 778 751 757 745 737 737 739 738 746 752 761
829 824 821 821 820 819 818 818 820 815 804 802 797 796 795 790 788 790 788 785 788 794 776 776 776 776 781 778 774 776 780 781 781 780 776 752 758 737 728 729 728 737 741 750 757
828 824 821 821 819 817 817 810 824 803 798 802 802 796 797 792 785 788 786 783 787 788 781 777 777 774 773 774 775 771 769 778 784 766 769 765 761 741 734 740 743 737 742 748 755
827 824 822 818 819 818 812 817 802 799 805 804 797 797 786 792 796 784 779 780 783 785 787 777 770 775 776 773 772 765 773 765 770 761 760 750 741 745 746 749 749 750 752 754 759
829 825 818 818 818 818 811 809 799 802 805 807 800 797 792 784 791 783 775 780 784 787 788 780 782 772 775 777 771 769 766 768 765 771 760 744 742 741 756 745 748 752 754 756 762
829 821 817 817 818 814 812 801 797 799 801 803 799 797 792 793 791 783 778 782 785 786 787 785 784 773 775 772 760 770 764 764 760 756 756 743 738 741 746 742 746 748 750 759 765
831 818 816 817 814 807 800 795 801 798 801 800 802 798 793 791 789 786 783 779 786 786 784 782 780 775 760 763 767 767 762 761 757 751 748 750 746 747 746 748 747 751 755 760 766
831 819 815 817 808 798 792 796 795 796 795 796 794 794 793 793 792 782 779 783 787 789 783 783 776 774 758 766 767 766 758 760 758 756 754 750 737 748 752 752 750 753 757 762 768
836 816 811 813 802 798 789 786 788 791 790 791 787 790 793 791 785 782 781 782 786 787 794 792 777 771 764 761 766 762 759 761 760 760 742 738 727 747 751 751 752 755 759 764 768
838 815 813 800 798 799 792 784 784 785 791 788 786 785 783 782 783 784 776 778 785 787 788 788 778 776 772 763 762 764 757 756 763 755 754 733 743 734 743 749 752 756 760 766 771
838 829 815 808 803 799 795 787 784 779 779 783 781 768 777 776 767 768 770 770 767 784 782 783 777 774 763 761 766 765 756 752 750 749 745 744 743 734 739 746 757 761 766 770 774
841 838 835 814 807 799 789 781 779 781 771 765 771 768 772 767 764 766 766 768 767 767 775 777 775 772 763 762 759 748 736 741 746 743 742 742 734 735 749 754 756 761 765 769 775